Meteógrafos Informações Meteorológicas em tempo real
Aeroporto Santos Dumont
15-12-2019 23:56

Temperatura atual: 26 graus 78 F    Umidade relativa: 74 %
Velocidade do vento: 01 nós 1 Km/h    Direção: 070 graus ENE
Ajuste do altímetro ..: 1013 HPA
Visibilidade: Ótima    Tempo presente: Céu Limpo

Observação
Data Hora BRTTempo°CUmidadePressãoVentoVisib.
15/12 - 23:56   Céu Limpo 26° 74% 1013 Este-nordeste/1 km/h OK
15/12 - 22:56   Céu Limpo 27° 69% 1013 Norte/0 km/h OK
15/12 - 21:56   Céu Limpo 27° 74% 1013 Sudeste/3 km/h OK
15/12 - 20:56   Céu Limpo 28° 70% 1013 Norte/3 km/h OK
15/12 - 19:56   Céu Limpo 29° 66% 1012 Este-nordeste/14 km/h OK
15/12 - 18:56   Céu Limpo 29° 70% 1012 Sudeste/7 km/h OK
15/12 - 17:55   Não Disponível 30° 66% 1012 Sul/18 km/h OK
15/12 - 16:56   Não Disponível 30° 66% 1012 Sul/16 km/h OK
15/12 - 15:56   Não Disponível 29° 70% 1013 Sul-sudeste/19 km/h OK
15/12 - 14:56   Não Disponível 29° 74% 1014 Sul-sudeste/18 km/h OK
15/12 - 13:56   Não Disponível 28° 74% 1014 Sul-sudeste/19 km/h OK
15/12 - 12:56   Não Disponível 29° 70% 1015 Sul-sudeste/14 km/h OK
15/12 - 11:56   Não Disponível 29° 74% 1015 Este-sudeste/7 km/h OK
15/12 - 10:56   Não Disponível 27° 83% 1016 Norte/9 km/h OK
15/12 - 09:56   Não Disponível 26° 83% 1016 Norte-noroeste/9 km/h OK
15/12 - 08:56   Não Disponível 26° 83% 1016 Norte-noroeste/9 km/h OK
15/12 - 07:56   Não Disponível 25° 83% 1016 Nordeste/7 km/h OK
15/12 - 06:56   Poucas nuvens esparsas 25° 88% 1016 Leste/3 km/h 8000
15/12 - 05:56   Céu Encoberto 24° 94% 1015 Sul-sudeste/3 km/h OK
15/12 - 04:56   Céu Encoberto 23° 100% 1015 Sudeste/5 km/h OK
15/12 - 03:56   Céu Encoberto 23° 100% 1015 Sul-sudeste/9 km/h OK
15/12 - 02:56   Parcialmente Nublado 24° 94% 1016 Sudeste/7 km/h OK
15/12 - 01:56   Parcialmente Nublado 24° 94% 1016 Sul/9 km/h 8000
15/12 - 00:56   Parcialmente Nublado 24° 94% 1017 Sudeste/10 km/h 8000

Termo de Uso  |   Links Úteis  |   Imprensa  |  Anuncie  |  Fale Conosco  |  Versão Celular  |   Política de Privacidade

Apolo11.com - Todos os direitos reservados - 2000 - 2019

"Existem velas que iluminam tudo, menos o próprio candelabro" - Hebbel